Location: Goll?ig?dem
(16.6773°N, 80.7332°E)
Time: 19:01:19
(UTC+00:00)

Cosmos 374 Rocket - Pass Details

Date: 19 May 2025
Orbit: 532 x 2027 km, 62.9° (Epoch: 23 June)

Event Time Altitude Azimuth Distance (km) Brightness Sun altitude
Rises 13:34:37 0° 208° (SSW) 2,904 8.1 -8.0°
Reaches altitude 10° 13:37:00 10° 210° (SSW) 1,890 7.1 -8.5°
Maximum altitude 13:41:02 75° 295° (WNW) 556 4.5 -9.4°
Drops below altitude 10° 13:44:52 10° 21° (NNE) 1,788 7.0 -10.2°
Sets 13:47:04 0° 23° (NNE) 2,729 7.9 -10.7°
